Regional Weather Roundup
Issued by NWS

Home | Current Version | Previous Version | Graphics & Text | Print | Product List | Glossary Off
Versions: 1 2 3 4 5 6 7 8 9 10 11 12 13 14 15 16 17 18 19 20 21 22 23 24 25 26 27 28 29 30 31 32 33 34 35 36 37 38 39 40 41 42 43 44 45 46 47 48 49 50

000
ASUS43 KMKX 220811
RWRWI

WISCONSIN REGIONAL WEATHER ROUNDUP
NATIONAL WEATHER SERVICE MILWAUKEE/SULLIVAN WI
300 AM CDT FRI SEP 22 2017

NOTE: "FAIR" INDICATES FEW OR NO CLOUDS BELOW 12,000 FEET WITH NO
SIGNIFICANT WEATHER AND/OR OBSTRUCTIONS TO VISIBILITY.

WIZ001-002-006>008-014>016-023>028-220900-
NORTHWEST WISCONSIN

CITY           SKY/WX    TMP DP  RH WIND       PRES   REMARKS
SUPERIOR ARPT  LGT RAIN  60  59  98 N3        29.87S
ASHLAND        CLOUDY    70  65  84 S7        29.87F
HAYWARD        CLOUDY    71  65  81 S6        29.90F
SIREN          CLOUDY    75  65  71 S14G22    29.85F
CUMBERLAND     CLEAR     68  63  83 SE6       29.89F
RICE LAKE      CLEAR     69  64  86 SE6       29.91F
CHETEK         CLEAR     68  65  92 SE7       29.91F
LADYSMITH      CLEAR     69  65  86 SE5       29.95F
EAU CLAIRE     PTCLDY    73  66  78 S10       29.90F
MENOMONIE      CLEAR     70  66  87 E3        29.90S
NEW RICHMOND   CLEAR     73  66  77 S10       29.87F
OSCEOLA        CLEAR     75  67  75 SE12G18   29.87F
$$

WIZ003>005-009-010-017-018-220900-
NORTH CENTRAL WISCONSIN

CITY           SKY/WX    TMP DP  RH WIND       PRES   REMARKS
MANITOWISH WTR CLEAR     66  66 100 S6        29.96F
ARBOR VITAE    CLEAR     67  65  92 SE3       29.96F
WOODRUFF       CLEAR     67  65  92 SE3       29.96F
RHINELANDER    MOCLDY    69  67  93 S5        29.99F
EAGLE RIVER    CLEAR     65  65 100 CALM      29.99S FOG
LAND O LAKES   CLEAR     68  65  90 S5        30.00S
PHILLIPS       CLOUDY    67  66  95 S6        29.96S
TOMAHAWK       PTCLDY    65  63  91 CALM      29.98F
MEDFORD        PTCLDY    65  64  94 S7        29.97F
MERRILL        CLEAR     67  66  98 CALM      29.98F
$$

WIZ029-030-035-036-043>047-220900-
CENTRAL WISCONSIN

CITY           SKY/WX    TMP DP  RH WIND       PRES   REMARKS
WAUSAU         CLEAR     66  65  96 SE6       29.97F
MOSINEE        CLEAR     64  64 100 SE5       30.00S
MARSHFIELD     CLEAR     68  63  84 S6        29.97F
STEVENS POINT  CLEAR     64  64 100 CALM      30.00S
WAUPACA        CLEAR     67  66  98 CALM      29.99F FOG
WAUTOMA        CLEAR     63  63 100 CALM      30.00S
WISC RAPIDS    CLEAR     68  65  90 SE3       29.99S
CAMP DOUGLAS   CLEAR     71  68  91 S6        29.96F
$$

WIZ011>013-019>022-031-037>040-048>050-220900-
NORTHEAST WISCONSIN

CITY           SKY/WX    TMP DP  RH WIND       PRES   REMARKS
ANTIGO         PTCLDY    65  65 100 S7        30.01F FOG
SHAWANO        FOG       65  64  94 CALM      29.99S VSB 1/2
OCONTO         CLEAR     61  61  99 CALM      29.99F
STURGEON BAY   CLEAR     70  68  93 S9        30.01F
GREEN BAY      CLEAR     67  67 100 CALM      29.99F
MANITOWOC      CLEAR     66  66 100 S3        30.01F FOG
APPLETON       CLEAR     68  68 100 S5        29.99S
CLINTONVILLE   FOG       63  63 100 CALM      29.99F VSB 1/4
OSHKOSH        CLEAR     68  66  93 S5        29.99F
$$

WIZ032>034-041-042-053>061-220900-
SOUTHWEST WISCONSIN

CITY           SKY/WX    TMP DP  RH WIND       PRES   REMARKS
LA CROSSE      NOT AVBL
SPARTA         CLEAR     74  67  79 S5        29.95S
VIROQUA        CLEAR     70  69  97 CALM      29.97S
BOSCOBEL       CLEAR     67  66  97 CALM      29.96F
PRAIRIE DU CHI CLEAR     78  66  67 S3        29.95S HX  80
PLATTEVILLE    CLEAR     73  70  91 S8        30.00S
$$

WIZ056-057-062-063-064-067-068-220900-
SOUTH CENTRAL WISCONSIN

CITY           SKY/WX    TMP DP  RH WIND       PRES   REMARKS
REEDSBURG      CLEAR     73  68  83 S12       29.97F
BARABOO/DELLS  CLEAR     71  65  81 S7        29.99S
LONE ROCK      CLEAR     72  68  87 E6        29.97F
MINERAL POINT  CLEAR     72  70  94 SE6       30.00F
MADISON        CLEAR     71  67  87 S6        29.99F
MIDDLETON      CLEAR     66  66 100 CALM      30.01S
WATERTOWN      CLEAR     68  68 100 SE3       30.01S
MONROE         PTCLDY    70  66  88 S8        30.01F
JANESVILLE     CLEAR     70  70 100 SE3       30.01S
$$

WIZ051-052-058>065-066-070>072-220900-
SOUTHEAST WISCONSIN

CITY           SKY/WX    TMP DP  RH WIND       PRES   REMARKS
MILWAUKEE      CLEAR     69  67  93 S3        30.01F FOG
WAUKESHA       CLEAR     68  64  88 CALM      30.04S FOG
MILWAUKEE/TIMM   N/A     64  61  88 CALM      30.03S FOG
RACINE         CLOUDY    72  71  97 SE3       30.04S FOG
BURLINGTON       N/A     63  63 100 CALM      30.03S FOG
KENOSHA        CLOUDY    72  69  90 CALM      30.03S FOG
FOND DU LAC    CLEAR     70  66  87 S7        30.00F
SHEBOYGAN      FOG       65  65 100 SW3       30.01F VSB 1/4
WEST BEND        N/A     63  63 100 CALM      30.03S FOG
JUNEAU         CLEAR     69  67  92 SE5       30.02S
$$

LSZ147-162-220900-
LAKE SUPERIOR

STATION/POSITION TIME  TEMP    WIND        PRES    WAVE
                       AIR SEA DIR/SP/G            HT/PER
                 (UTC) (F)     (DEG/KT/KT) (MB)    (FT/S)
W MID LAKE BUOY  0750   59 55  100/  6/  6 1011.7R   1/ 4
DEVILS ISLAND    0800   61      40/  5/  5 1011.2F
SAXON HARBOR     0740   74     190/  8/ 15 1010.8F
$$

LMZ867-665-643>646-220900-
LAKE MICHIGAN

STATION/POSITION TIME  TEMP    WIND        PRES    WAVE
                       AIR SEA DIR/SP/G            HT/PER
                 (UTC) (F)     (DEG/KT/KT) (MB)    (FT/S)
S GREEN BAY BUOY 0800   69 67  200/  4/  4 1015.3
N MID LAKE BUOY  0750   68 65  170/  6/  8 1016.4F   0
NORTHPORT PIER   0740   67     150/  6/  8 1015.6F
KEWAUNEE LAKESHO 0748   62        CALM     1015.3F
SHEBOYGAN LAKESH 0800   69     200/  4/  4 1015.9S
PORT WASHINGTON  0740   70     260/  3/  4 1017.3S
ATWATER BUOY     0709   69 66  200/  2/  4 1016.7R
MILWAUKEE LAKESH 0750   70     180/  1/  2   N/A
S MID LAKE BUOY  0750   72 69  150/ 10/ 10 1016.7S   1
KENOSHA   LAKESH 0800   73     190/  5/  6 1016.6
$$

TC  - TEMPERATURE IN CELSIUS
VSB - VISIBILITY IN STATUTE MILES
WCI - WIND CHILL INDEX
HX  - HEAT INDEX





USA.gov is the U.S. government's official web portal to all federal, state and local government web resources and services.